This is the latest recevied weather packets stored in our database for station/object EA5FOG-11. If no packets are shown the sender has not sent any weather packets the latest 10 day(s).
| Time | Temp. | Humidity | Pressure | Rain* | Wind** | Luminosity | Snow |
|---|---|---|---|---|---|---|---|
| 1777681108 | 16.67° C | 65% | 963.6 hPa | - | - | - | - |
| 1777680207 | 16.67° C | 65% | 963.7 hPa | - | - | - | - |
| 1777679306 | 17.22° C | 64% | 963.8 hPa | - | - | - | - |
| 1777678405 | 17.22° C | 64% | 964 hPa | - | - | - | - |
| 1777676622 | 16.67° C | 64% | 964.1 hPa | - | - | - | - |
| 1777675722 | 16.67° C | 64% | 964.2 hPa | - | - | - | - |
| 1777674821 | 16.67° C | 64% | 964.4 hPa | - | - | - | - |
| 1777673920 | 16.67° C | 63% | 964.3 hPa | - | - | - | - |
| 1777673018 | 16.67° C | 63% | 964.3 hPa | - | - | - | - |
| 1777672118 | 16.67° C | 63% | 964.3 hPa | - | - | - | - |
| 1777671215 | 16.11° C | 63% | 964.2 hPa | - | - | - | - |
| 1777670315 | 16.11° C | 62% | 964.1 hPa | - | - | - | - |
| 1777669414 | 16.67° C | 62% | 964.2 hPa | - | - | - | - |
| 1777668513 | 16.67° C | 61% | 963.9 hPa | - | - | - | - |
| 1777667612 | 16.67° C | 61% | 963.7 hPa | - | - | - | - |
| 1777666711 | 16.67° C | 60% | 963.5 hPa | - | - | - | - |
| 1777665811 | 17.22° C | 60% | 963.4 hPa | - | - | - | - |
| 1777664910 | 17.22° C | 59% | 963.4 hPa | - | - | - | - |
| 1777664009 | 17.78° C | 58% | 963.1 hPa | - | - | - | - |
| 1777663108 | 18.33° C | 57% | 963 hPa | - | - | - | - |
| 1777662208 | 18.89° C | 56% | 962.7 hPa | - | - | - | - |
| 1777661307 | 19.44° C | 55% | 962.7 hPa | - | - | - | - |
| 1777660406 | 20° C | 55% | 962.5 hPa | - | - | - | - |
| 1777659505 | 20.56° C | 54% | 962.3 hPa | - | - | - | - |
| 1777658604 | 21.11° C | 54% | 962.1 hPa | - | - | - | - |
* Rain since midnight (hover to see other rain measurements)
** Current wind speed in m/s (hover to see current wind gust speed)